Weather reports worldwide

Advertisment
Larkhill, United Kingdom (3743): temperature & dewpoint: 11.06.2019 19:00:00 - 17.06.2019 19:00:00 (BST)Larkhill, United Kingdom (3743): temperature -20cm & temperature -100cm: 11.06.2019 19:00:00 - 17.06.2019 19:00:00 (BST)Larkhill, United Kingdom (3743): wind speed & gusts: 11.06.2019 19:00:00 - 17.06.2019 19:00:00 (BST)Larkhill, United Kingdom (3743): wind direction: 11.06.2019 19:00:00 - 17.06.2019 19:00:00 (BST)Larkhill, United Kingdom (3743): reduced air pressure: 11.06.2019 19:00:00 - 17.06.2019 19:00:00 (BST)Larkhill, United Kingdom (3743): visibility: 11.06.2019 19:00:00 - 17.06.2019 19:00:00 (BST)Larkhill, United Kingdom (3743): precipitation: 11.06.2019 19:00:00 - 17.06.2019 19:00:00 (BST)
Date & Time tt [°C] td [°C] tt -20cm [°C] tt -100cm [°C] ff [km/h] ff [kn] fx [km/h] fx [kn] dd ppp [hPa] vv [km] rr [mm]
17.06.2019 19:00:00 - - - - - - - - - - - -
17.06.2019 18:00:00 16,8 9,0 - - 16 9 - - SSW 1016,7 45 0,0
17.06.2019 17:00:00 17,0 9,2 - - 15 8 - - SSW 1016,8 30 0,0
17.06.2019 16:00:00 16,8 9,7 - - 15 8 - - SW 1017,0 30 0,0
17.06.2019 15:00:00 16,9 9,8 - - 16 9 - - SSW 1017,3 30 0,0
17.06.2019 14:00:00 17,2 10,5 - - 16 9 - - SSW 1017,3 40 0,0
17.06.2019 13:00:00 17,2 10,1 - - 18 10 - - SSW 1017,3 40 0,0
17.06.2019 12:00:00 16,4 10,3 - - 18 10 - - SSW 1017,6 25 0,0
17.06.2019 11:00:00 15,8 10,6 - - 16 9 - - SSW 1017,8 25 0,0
17.06.2019 10:00:00 15,9 11,3 15,4 13,5 16 9 - - SSW 1017,7 25 0,0
17.06.2019 09:00:00 14,8 11,1 - - 15 8 - - SSW 1017,7 25 0,0
17.06.2019 08:00:00 13,8 10,9 - - 15 8 - - SSW 1017,8 25 0,0
17.06.2019 07:00:00 13,0 10,0 - - 13 7 - - SSW 1017,5 25 0,0
17.06.2019 06:00:00 12,5 9,9 - - 9 5 - - S 1017,3 30 0,0
17.06.2019 05:00:00 12,9 9,7 - - 11 6 - - S 1017,4 35 0,0
17.06.2019 04:00:00 13,2 9,9 - - 13 7 - - SW 1017,5 35 0,0
17.06.2019 03:00:00 12,8 10,8 - - 9 5 - - S 1017,8 27 0,0
17.06.2019 02:00:00 12,5 11,1 - - 8 4 - - SSE 1017,8 21 0,0
17.06.2019 01:00:00 12,7 11,1 - - 8 4 - - SSE 1018,1 20 0,0
17.06.2019 00:00:00 12,9 11,3 - - 9 5 - - SSW 1018,2 20 0,0
16.06.2019 23:00:00 13,0 11,3 - - 11 6 - - SSW 1018,2 21 0,0
16.06.2019 22:00:00 12,9 11,0 - - 13 7 - - S 1018,0 20 0,0
16.06.2019 21:00:00 13,8 10,8 - - 13 7 - - SSW 1017,5 27 0,0
16.06.2019 20:00:00 14,5 10,3 - - 15 8 - - SSW 1017,4 30 0,0
16.06.2019 19:00:00 15,9 10,2 - - 16 9 46 25 SSW 1017,3 35 0,0
16.06.2019 18:00:00 17,5 10,2 - - 22 12 - - SW 1016,9 40 0,0
16.06.2019 17:00:00 18,3 11,0 - - 21 11 - - SW 1016,7 45 0,0
16.06.2019 16:00:00 17,1 11,7 - - 22 12 - - SW 1016,8 40 0,0
16.06.2019 15:00:00 17,4 11,3 - - 24 13 - - SW 1016,5 40 0,0
16.06.2019 14:00:00 17,3 11,1 - - 21 11 - - SW 1016,2 40 0,0
16.06.2019 13:00:00 17,1 11,0 - - 22 12 - - SSW 1016,0 40 0,0
16.06.2019 12:00:00 17,0 11,0 - - 21 11 - - SSW 1015,6 45 0,0
16.06.2019 11:00:00 17,2 12,2 - - 18 10 - - SW 1015,2 40 0,0
16.06.2019 10:00:00 14,6 11,8 14,7 13,5 16 9 - - SSW 1015,2 29 0,0
16.06.2019 09:00:00 14,0 12,5 - - 16 9 - - SSW 1015,2 25 0,0
16.06.2019 08:00:00 12,4 11,9 - - 13 7 - - S 1014,9 7 0,2
16.06.2019 07:00:00 11,6 11,2 - - 8 4 - - S 1014,8 11 0,0
16.06.2019 06:00:00 10,8 10,4 - - 4 2 - - SSE 1014,9 8 0,0
16.06.2019 05:00:00 10,4 10,0 - - 4 2 - - SSE 1014,6 6 0,0
16.06.2019 04:00:00 10,0 9,7 - - 8 4 - - SSE 1014,8 7 0,0
16.06.2019 03:00:00 9,1 8,6 - - 8 4 - - S 1014,9 5 0,0
16.06.2019 02:00:00 9,3 8,8 - - 9 5 - - SSW 1015,0 9 0,0
16.06.2019 01:00:00 9,5 8,7 - - 8 4 - - SSW 1015,0 21 0,0
16.06.2019 00:00:00 9,7 8,4 - - 8 4 - - SSW 1014,8 28 0,0
15.06.2019 23:00:00 10,0 8,0 - - 8 4 - - SSW 1014,5 30 0,0
15.06.2019 22:00:00 11,5 7,9 - - 8 4 - - SSW 1014,0 40 0,0
15.06.2019 21:00:00 13,2 8,7 - - 4 2 - - SSW 1013,2 40 0,0
15.06.2019 20:00:00 14,7 9,0 - - 9 5 - - WNW 1013,1 40 0,0
15.06.2019 19:00:00 15,4 7,5 - - 16 9 - - SSW 1012,6 55 0,0
15.06.2019 18:00:00 16,5 7,3 - - 18 10 - - SSW 1012,0 55 0,0
15.06.2019 17:00:00 16,5 7,3 - - 18 10 - - S 1011,8 60 0,0
15.06.2019 16:00:00 16,9 9,3 - - 21 11 - - SSW 1011,7 60 0,0
15.06.2019 15:00:00 15,8 11,5 - - 22 12 - - SSW 1011,7 35 0,0
15.06.2019 14:00:00 14,5 13,3 - - 16 9 - - SSW 1011,7 30 0,0
15.06.2019 13:00:00 12,9 12,0 - - 15 8 - - S 1011,9 6 0,4
15.06.2019 12:00:00 12,5 11,1 - - 13 7 - - S 1011,8 7 0,0
15.06.2019 11:00:00 12,7 10,1 - - 21 11 - - S 1011,6 18 0,0
15.06.2019 10:00:00 14,0 9,4 14,7 13,5 16 9 - - S 1011,4 40 0,0
15.06.2019 09:00:00 13,9 9,4 - - 15 8 - - S 1011,3 45 0,0
15.06.2019 08:00:00 13,4 9,7 - - 15 8 - - SSW 1011,1 45 0,0
15.06.2019 07:00:00 12,2 10,5 - - 11 6 - - S 1011,0 30 0,0
15.06.2019 06:00:00 10,7 9,9 - - 5 3 - - SSE 1011,3 29 0,0
15.06.2019 05:00:00 10,5 9,6 - - 9 5 - - SSE 1011,3 30 0,0
15.06.2019 04:00:00 10,4 9,7 - - 8 4 - - SSE 1011,5 23 0,0
15.06.2019 03:00:00 10,3 9,6 - - 8 4 - - SE 1011,4 19 0,0
15.06.2019 02:00:00 10,1 9,4 - - 8 4 - - SSE 1011,9 19 0,0
15.06.2019 01:00:00 10,5 9,6 - - 5 3 - - S 1011,9 23 0,0
15.06.2019 00:00:00 9,8 8,6 - - 5 3 - - SSW 1012,0 23 0,0
14.06.2019 23:00:00 10,9 8,7 - - 5 3 - - S 1011,8 30 0,0
14.06.2019 22:00:00 11,5 8,6 - - 8 4 - - S 1011,6 30 0,0
14.06.2019 21:00:00 12,8 8,5 - - 11 6 - - SSW 1011,0 35 0,0
14.06.2019 20:00:00 14,4 8,6 - - 15 8 - - SSW 1010,8 35 0,0
14.06.2019 19:00:00 14,9 8,4 - - 16 9 - - SSW 1010,7 40 0,0
14.06.2019 18:00:00 15,8 9,1 - - 18 10 - - SSW 1010,3 40 0,0
14.06.2019 17:00:00 15,7 9,1 - - 18 10 - - SSW 1010,2 35 0,0
14.06.2019 16:00:00 15,3 9,8 - - 16 9 - - S 1010,1 25 0,0
14.06.2019 15:00:00 15,2 10,2 - - 16 9 - - S 1010,1 25 0,0
14.06.2019 14:00:00 15,5 10,2 - - 22 12 - - SSW 1009,7 25 0,0
14.06.2019 13:00:00 15,0 9,6 - - 22 12 - - SSW 1009,7 25 0,0
14.06.2019 12:00:00 14,9 10,9 - - 18 10 - - SSW 1009,6 25 0,0
14.06.2019 11:00:00 14,5 11,7 - - 21 11 - - SSW 1009,1 25 0,0
14.06.2019 10:00:00 13,4 11,5 14,2 13,5 15 8 - - SW 1008,9 22 0,2
14.06.2019 09:00:00 11,7 11,2 - - 11 6 - - SSW 1008,8 7 1,0
14.06.2019 08:00:00 12,0 10,8 - - 15 8 - - SSW 1008,3 18 0,0
14.06.2019 07:00:00 11,4 10,6 - - 16 9 - - SSW 1008,0 35 0,0
14.06.2019 06:00:00 11,4 10,7 - - 15 8 - - S 1007,7 30 0,0
14.06.2019 05:00:00 11,2 10,7 - - 13 7 - - S 1007,6 26 0,4
14.06.2019 04:00:00 11,0 10,6 - - 11 6 - - SSW 1007,7 9 0,4
14.06.2019 03:00:00 11,1 10,7 - - 9 5 - - SSW 1007,8 10 0,8
14.06.2019 02:00:00 11,2 10,7 - - 8 4 - - SSW 1008,0 8 0,4
14.06.2019 01:00:00 10,7 9,9 - - 5 3 - - SSW 1008,1 23 0,0
14.06.2019 00:00:00 10,8 9,6 - - 8 4 - - SW 1008,4 35 0,0
13.06.2019 23:00:00 10,9 9,9 - - 8 4 - - SW 1008,3 40 0,0
13.06.2019 22:00:00 11,0 9,8 - - 5 3 - - SW 1008,0 45 0,0
13.06.2019 21:00:00 11,7 10,7 - - 9 5 - - SW 1007,1 35 0,0
13.06.2019 20:00:00 12,5 11,4 - - 11 6 - - SW 1006,3 40 0,0
13.06.2019 19:00:00 12,0 11,2 - - 13 7 - - SW 1005,7 17 0,0
13.06.2019 18:00:00 11,9 11,1 - - 11 6 - - SW 1005,3 5 0,4
13.06.2019 17:00:00 12,4 11,2 - - 16 9 - - SW 1004,8 18 0,0
13.06.2019 16:00:00 12,4 10,9 - - 18 10 - - SW 1004,8 20 0,0
13.06.2019 15:00:00 12,2 11,1 - - 21 11 - - SSW 1004,6 15 0,2
13.06.2019 14:00:00 12,5 10,7 - - 21 11 - - SSW 1004,5 5 0,0
13.06.2019 13:00:00 12,3 10,7 - - 16 9 - - SSW 1004,4 20 0,2
13.06.2019 12:00:00 12,0 10,1 - - 18 10 - - SSW 1004,4 25 0,0
13.06.2019 11:00:00 11,6 10,0 - - 15 8 - - SSW 1004,5 25 0,0
13.06.2019 10:00:00 11,5 9,4 14,2 13,7 18 10 - - SSW 1004,4 28 0,0
13.06.2019 09:00:00 11,8 10,0 - - 16 9 - - SSW 1004,3 22 0,0
13.06.2019 08:00:00 11,1 10,4 - - 13 7 - - SSW 1004,5 12 0,4
13.06.2019 07:00:00 10,4 9,9 - - 9 5 - - SSW 1004,7 8 0,2
13.06.2019 06:00:00 10,0 9,5 - - 8 4 - - SW 1005,1 11 0,4
13.06.2019 05:00:00 10,0 9,5 - - 8 4 - - SW 1005,1 7 0,6
13.06.2019 04:00:00 9,9 9,3 - - 8 4 - - SW 1005,5 7 0,0
13.06.2019 03:00:00 10,0 9,3 - - 8 4 - - SW 1005,8 16 0,0
13.06.2019 02:00:00 10,2 9,8 - - 9 5 - - SW 1006,4 7 0,2
13.06.2019 01:00:00 10,6 10,2 - - 8 4 - - SW 1007,1 5 0,2
13.06.2019 00:00:00 10,6 10,1 - - 4 2 - - SW 1007,6 3,9 0,2
12.06.2019 23:00:00 10,7 10,0 - - 5 3 - - SSW 1008,2 6 0,4
12.06.2019 22:00:00 11,2 9,5 - - 2 1 - - SSW 1008,5 9 0,6
12.06.2019 21:00:00 11,8 9,6 - - 0 0 - - N 1008,4 16 0,0
12.06.2019 20:00:00 12,0 10,1 - - 2 1 - - ENE 1008,3 20 0,2
12.06.2019 19:00:00 12,5 10,1 - - 5 3 - - ENE 1008,4 27 0,0
12.06.2019 18:00:00 13,1 9,8 - - 9 5 - - NNE 1008,6 40 0,0
12.06.2019 17:00:00 13,6 9,0 - - 8 4 - - NNE 1009,2 40 0,0
12.06.2019 16:00:00 13,8 9,1 - - 13 7 - - NNE 1009,4 45 0,0
12.06.2019 15:00:00 14,3 9,7 - - 11 6 - - N 1009,5 50 0,0
12.06.2019 14:00:00 13,5 8,6 - - 11 6 - - N 1009,8 35 0,0
12.06.2019 13:00:00 13,1 9,0 - - 13 7 - - N 1010,1 55 0,0
12.06.2019 12:00:00 14,8 9,8 - - 13 7 - - N 1009,5 35 0,0
12.06.2019 11:00:00 12,3 9,2 - - 11 6 - - NE 1010,2 30 0,0
12.06.2019 10:00:00 10,9 9,2 13,7 13,7 13 7 - - NE 1010,3 25 0,0
12.06.2019 09:00:00 9,9 8,9 - - 15 8 - - NNE 1010,7 15 0,0
12.06.2019 08:00:00 9,6 8,8 - - 16 9 - - NE 1011,1 12 0,0
12.06.2019 07:00:00 9,4 8,5 - - 15 8 - - NE 1011,0 25 0,0
12.06.2019 06:00:00 9,2 8,3 - - 16 9 - - NNE 1011,1 25 0,0
12.06.2019 05:00:00 9,1 8,3 - - 16 9 - - NNE 1011,4 30 0,0
12.06.2019 04:00:00 9,1 8,4 - - 18 10 - - NNE 1011,2 30 0,0
12.06.2019 03:00:00 9,2 8,4 - - 18 10 - - NNE 1012,1 35 0,0
12.06.2019 02:00:00 9,2 8,2 - - 18 10 - - NNE 1012,5 50 0,0
12.06.2019 01:00:00 9,1 8,1 - - 21 11 - - NNE 1012,8 50 0,0
12.06.2019 00:00:00 9,1 8,0 - - 21 11 - - NNE 1013,2 60 0,0
11.06.2019 23:00:00 9,2 8,0 - - 22 12 - - NNE 1013,6 60 0,0
11.06.2019 22:00:00 9,3 8,1 - - 24 13 - - NNE 1014,0 50 0,0
11.06.2019 21:00:00 9,5 8,2 - - 22 12 - - NNE 1014,0 40 0,0
11.06.2019 20:00:00 9,9 8,2 - - 24 13 - - NNE 1013,9 70 0,0
11.06.2019 19:00:00 10,4 8,5 - - 28 15 - - NNE 1013,6 70 0,0

tt = temperature
td = dewpoint
tt -20cm = temperature -20cm
tt -100cm = temperature -100cm
ff = wind speed
fx = gusts
dd = wind direction
ppp = reduced air pressure
vv = visibility
rr = precipitation

Next stations